Date String (YYYY-MM-DD hh:mm:ss) UTC,Instrument flags,Ambient pressure (hPa),Sample flow (lpm),Bypass flow (lpm),Sample temperature (°C),Ambient temperature (°C),ASC tube jacket temperature (°C),LED temperature (°C),Box temperature (°C),Sample RH (%),Span deviation,Mass concentration (μg/m³),Mass concentration (μg/m³),Mass concentration (μg/m³)
DateTimeUTC,F1_M11,P_M11,Q1_M11,Q2_M11,T1_M11,T2_M11,T3_M11,T4_M11,T5_M11,U1_M11,ZSPAN_M11,X2_M11,X0_M11,X1_M11
2021-10-16 19:00:00,,0834.4,4.99,0.00,29.9,29.2,00.0,38.8,31.8,07.8,0000.0,0001.88,0003.64,0001.29
2021-10-16 19:01:00,,0834.4,5.00,0.00,29.9,29.2,00.0,38.9,31.8,07.7,0000.0,0001.86,0003.59,0001.28
2021-10-16 19:02:00,,0834.4,5.00,0.00,30.0,29.3,00.0,38.9,31.8,07.5,0000.0,0001.82,0003.47,0001.28
2021-10-16 19:03:00,,0834.4,5.00,0.00,30.0,29.3,00.0,38.9,31.8,07.4,0000.0,0001.81,0003.37,0001.28
2021-10-16 19:04:00,,0834.4,4.99,0.00,30.0,29.3,00.0,38.9,31.8,07.5,0000.0,0001.78,0003.30,0001.28
2021-10-16 19:05:00,,0834.3,5.00,0.00,30.0,29.3,00.0,38.9,31.9,07.5,0000.0,0001.80,0004.02,0001.26
2021-10-16 19:06:00,,0834.3,5.00,0.00,30.0,29.3,00.0,39.0,31.9,07.6,0000.0,0001.81,0004.27,0001.25
2021-10-16 19:07:00,,0834.3,5.01,0.00,30.1,29.3,00.0,39.0,31.9,07.4,0000.0,0001.82,0004.33,0001.24
2021-10-16 19:08:00,,0834.3,5.00,0.00,30.1,29.4,00.0,39.0,31.9,07.1,0000.0,0001.80,0004.69,0001.21
2021-10-16 19:09:00,,0834.3,4.99,0.00,30.1,29.4,00.0,39.0,31.9,07.1,0000.0,0001.75,0004.49,0001.18
2021-10-16 19:10:00,,0834.3,5.01,0.00,30.1,29.4,00.0,39.1,31.9,07.2,0000.0,0001.72,0004.38,0001.17
2021-10-16 19:11:00,,0834.3,5.00,0.00,30.1,29.4,00.0,39.1,31.9,07.1,0000.0,0001.66,0004.25,0001.15
2021-10-16 19:12:00,,0834.3,5.00,0.00,30.1,29.4,00.0,39.1,32.0,07.2,0000.0,0001.68,0004.38,0001.12
2021-10-16 19:13:00,,0834.3,5.00,0.00,30.1,29.4,00.0,39.1,32.0,07.3,0000.0,0001.66,0004.36,0001.11
2021-10-16 19:14:00,,0834.2,5.00,0.00,30.1,29.4,00.0,39.1,32.0,07.3,0000.0,0001.65,0004.36,0001.09
2021-10-16 19:15:00,,0834.2,5.01,0.00,30.2,29.5,00.0,39.1,32.0,07.3,0000.0,0001.67,0004.42,0001.09
2021-10-16 19:16:00,,0834.2,5.00,0.00,30.2,29.5,00.0,39.1,32.0,07.3,0000.0,0001.64,0003.96,0001.08
2021-10-16 19:17:00,,0834.3,5.00,0.00,30.2,29.5,00.0,39.2,32.0,07.5,0000.0,0001.62,0003.56,0001.07
2021-10-16 19:18:00,,0834.3,5.00,0.00,30.2,29.5,00.0,39.2,32.0,07.8,0000.0,0001.59,0003.30,0001.07
2021-10-16 19:19:00,,0834.2,5.01,0.00,30.3,29.5,00.0,39.2,32.1,07.4,0000.0,0001.59,0002.88,0001.08
2021-10-16 19:20:00,,0834.2,4.98,0.00,30.3,29.5,00.0,39.2,32.1,07.2,0000.0,0001.61,0002.92,0001.09
2021-10-16 19:21:00,,0834.1,5.01,0.00,30.3,29.5,00.0,39.2,32.1,07.1,0000.0,0001.59,0002.87,0001.08
2021-10-16 19:22:00,,0834.1,5.00,0.00,30.3,29.5,00.0,39.3,32.1,07.2,0000.0,0001.64,0003.06,0001.08
2021-10-16 19:23:00,,0834.1,5.01,0.00,30.3,29.5,00.0,39.3,32.1,07.3,0000.0,0001.66,0003.03,0001.10
2021-10-16 19:24:00,,0834.1,5.01,0.00,30.3,29.5,00.0,39.3,32.1,07.3,0000.0,0001.71,0003.25,0001.11
2021-10-16 19:25:00,,0834.1,5.00,0.00,30.3,29.5,00.0,39.3,32.1,07.2,0000.0,0001.77,0003.40,0001.11
2021-10-16 19:26:00,,0834.1,4.99,0.00,30.4,29.6,00.0,39.3,32.1,07.3,0000.0,0001.79,0003.46,0001.12
2021-10-16 19:27:00,,0834.0,5.01,0.00,30.4,29.6,00.0,39.3,32.1,07.4,0000.0,0001.80,0003.37,0001.12
2021-10-16 19:28:00,,0834.0,4.98,0.00,30.4,29.6,00.0,39.3,32.2,07.4,0000.0,0001.82,0003.41,0001.12
2021-10-16 19:29:00,,0834.0,5.00,0.00,30.4,29.6,00.0,39.4,32.2,08.2,0000.0,0001.88,0003.59,0001.14
2021-10-16 19:30:00,,0834.0,4.99,0.00,30.4,29.7,00.0,39.4,32.2,08.4,0000.0,0001.96,0003.66,0001.21
2021-10-16 19:31:00,,0834.0,5.01,0.00,30.4,29.7,00.0,39.4,32.2,08.5,0000.0,0002.10,0003.90,0001.31
2021-10-16 19:32:00,,0834.0,5.00,0.00,30.5,29.7,00.0,39.4,32.3,08.4,0000.0,0002.25,0004.16,0001.44
2021-10-16 19:33:00,,0834.0,5.01,0.00,30.5,29.7,00.0,39.4,32.3,08.3,0000.0,0002.33,0004.17,0001.55
2021-10-16 19:34:00,,0834.0,5.00,0.00,30.5,29.7,00.0,39.5,32.3,08.4,0000.0,0002.44,0004.32,0001.64
2021-10-16 19:35:00,,0834.0,5.00,0.00,30.5,29.7,00.0,39.5,32.3,08.3,0000.0,0002.54,0004.38,0001.72
2021-10-16 19:36:00,,0834.0,4.99,0.00,30.5,29.8,00.0,39.5,32.3,08.4,0000.0,0002.57,0004.31,0001.81
2021-10-16 19:37:00,,0833.9,5.00,0.00,30.5,29.8,00.0,39.5,32.3,08.3,0000.0,0002.69,0004.49,0001.91
2021-10-16 19:38:00,,0834.0,5.00,0.00,30.5,29.8,00.0,39.5,32.3,08.4,0000.0,0002.80,0004.57,0002.01
2021-10-16 19:39:00,,0834.0,5.00,0.00,30.5,29.8,00.0,39.5,32.3,08.5,0000.0,0002.98,0004.86,0002.12
2021-10-16 19:40:00,,0833.9,5.01,0.00,30.6,29.8,00.0,39.5,32.3,08.3,0000.0,0003.08,0004.99,0002.20
2021-10-16 19:41:00,,0833.9,5.00,0.00,30.6,29.8,00.0,39.6,32.3,08.3,0000.0,0003.11,0005.01,0002.23
2021-10-16 19:42:00,,0833.9,4.99,0.00,30.6,29.9,00.0,39.6,32.3,08.3,0000.0,0003.06,0005.05,0002.23
2021-10-16 19:43:00,,0833.9,4.99,0.00,30.6,29.9,00.0,39.6,32.3,08.5,0000.0,0003.03,0005.13,0002.22
2021-10-16 19:44:00,,0833.9,5.01,0.00,30.6,29.9,00.0,39.6,32.4,08.6,0000.0,0003.04,0005.30,0002.21
2021-10-16 19:45:00,,0833.8,5.01,0.00,30.6,29.9,00.0,39.6,32.4,08.5,0000.0,0003.06,0005.38,0002.23
2021-10-16 19:46:00,,0833.9,5.00,0.00,30.6,30.0,00.0,39.6,32.4,08.5,0000.0,0003.11,0005.45,0002.28
2021-10-16 19:47:00,,0833.9,4.99,0.00,30.7,30.0,00.0,39.6,32.4,08.6,0000.0,0003.18,0006.25,0002.32
2021-10-16 19:48:00,,0833.9,5.00,0.00,30.7,30.0,00.0,39.7,32.4,08.6,0000.0,0003.24,0007.48,0002.36
2021-10-16 19:49:00,,0833.9,5.01,0.00,30.7,30.0,00.0,39.7,32.5,08.5,0000.0,0003.28,0008.05,0002.39
2021-10-16 19:50:00,,0833.8,5.00,0.00,30.7,30.0,00.0,39.7,32.5,08.3,0000.0,0003.24,0007.98,0002.38
2021-10-16 19:51:00,,0833.8,5.00,0.00,30.7,30.0,00.0,39.7,32.5,08.5,0000.0,0003.27,0008.01,0002.42
2021-10-16 19:52:00,,0833.8,5.00,0.00,30.8,30.0,00.0,39.7,32.5,08.5,0000.0,0003.29,0008.19,0002.44
2021-10-16 19:53:00,,0833.8,5.01,0.00,30.8,30.0,00.0,39.7,32.6,08.5,0000.0,0003.31,0008.11,0002.47
2021-10-16 19:54:00,,0833.8,4.99,0.00,30.8,30.0,00.0,39.8,32.6,08.4,0000.0,0003.34,0008.07,0002.51
2021-10-16 19:55:00,,0833.8,5.00,0.00,30.8,30.0,00.0,39.8,32.6,08.4,0000.0,0003.36,0008.02,0002.54
2021-10-16 19:56:00,,0833.8,5.02,0.00,30.8,30.1,00.0,39.8,32.6,08.5,0000.0,0003.38,0008.57,0002.56
2021-10-16 19:57:00,,0833.8,4.99,0.00,30.8,30.1,00.0,39.8,32.6,08.6,0000.0,0003.36,0009.54,0002.56
2021-10-16 19:58:00,,0833.7,5.01,0.00,30.8,30.1,00.0,39.8,32.6,08.6,0000.0,0003.33,0009.31,0002.57
2021-10-16 19:59:00,,0833.8,5.00,0.00,30.8,30.1,00.0,39.8,32.6,08.7,0000.0,0003.30,0008.45,0002.60
